Tracking 29892 objects as of 21-Nov-2024
HD Live streaming from Space Station
objects crossing your sky now

PEGASUS DEB

Track PEGASUS DEB now!
10-day predictions


NORAD ID: 24227
Int'l Code: 1994-029LA
Perigee: 557.5 km
Apogee: 758.4 km
Inclination: 82.0 °
Period: 97.7 minutes
Semi major axis: 7028 km
RCS: 0.0996 m2 (small)
Launch date: May 19, 1994
Source: United States (US)
Launch site: AIR FORCE WESTERN TEST RANGE (AFWTR)

Note: This is SATELLITE DEBRIS
Your satellite tracking list
Your tracking list is empty




NASA's NSSDC Master Catalog

Two Line Element Set (TLE):
1 24227U 94029LA  24325.91300934  .00006881  00000-0  90301-3 0  9995
2 24227  82.0408 285.1786 0142869 320.5197  60.9724 14.73212899517237
Source of the keplerian elements: AFSPC